TimePDT,TemperatureF,Dew PointF,Humidity,Sea Level PressureIn,VisibilityMPH,Wind Direction,Wind SpeedMPH,Gust SpeedMPH,PrecipitationIn,Events,Conditions,WindDirDegrees,DateUTC
12:53 AM,71.1,42.1,35,29.76,10.0,SW,6.9,-,N/A,,Clear,220,2013-07-22 07:53:00
1:53 AM,66.0,42.1,42,29.78,10.0,ESE,4.6,-,N/A,,Clear,110,2013-07-22 08:53:00
2:53 AM,64.0,41.0,43,29.79,10.0,ESE,4.6,-,N/A,,Clear,110,2013-07-22 09:53:00
3:53 AM,60.1,42.1,51,29.80,10.0,ESE,6.9,-,N/A,,Clear,120,2013-07-22 10:53:00
4:53 AM,59.0,39.9,49,29.81,10.0,ESE,6.9,-,N/A,,Clear,120,2013-07-22 11:53:00
5:53 AM,61.0,39.0,44,29.83,10.0,SSE,8.1,-,N/A,,Clear,160,2013-07-22 12:53:00
6:53 AM,64.9,37.0,36,29.84,10.0,SSE,8.1,-,N/A,,Clear,150,2013-07-22 13:53:00
7:53 AM,72.0,37.0,28,29.85,10.0,South,4.6,-,N/A,,Clear,170,2013-07-22 14:53:00
8:53 AM,79.0,35.1,20,29.86,10.0,SSW,6.9,-,N/A,,Clear,200,2013-07-22 15:53:00
9:53 AM,84.0,33.1,16,29.86,10.0,West,12.7,23.0,N/A,,Clear,270,2013-07-22 16:53:00
10:53 AM,86.0,34.0,16,29.86,6.0,West,17.3,24.2,0.00,Rain,Light Rain,280,2013-07-22 17:53:00
11:53 AM,89.1,34.0,14,29.86,6.0,WNW,16.1,23.0,0.00,,Haze,290,2013-07-22 18:53:00
12:53 PM,90.0,35.1,14,29.86,10.0,WNW,8.1,18.4,N/A,,Clear,290,2013-07-22 19:53:00
1:53 PM,93.9,36.0,13,29.85,10.0,WNW,11.5,-,N/A,,Clear,290,2013-07-22 20:53:00
2:53 PM,95.0,36.0,13,29.84,10.0,Variable,6.9,17.3,N/A,,Clear,0,2013-07-22 21:53:00
3:53 PM,95.0,37.9,14,29.83,10.0,WNW,6.9,-,N/A,,Clear,290,2013-07-22 22:53:00
4:53 PM,96.1,39.0,14,29.82,10.0,North,-9999.0,-,N/A,,Clear,0,2013-07-22 23:53:00
5:53 PM,96.1,36.0,12,29.81,10.0,West,11.5,-,N/A,,Clear,270,2013-07-23 00:53:00
6:53 PM,93.9,39.0,15,29.81,10.0,NW,10.4,-,N/A,,Clear,310,2013-07-23 01:53:00
7:53 PM,89.1,37.9,16,29.81,10.0,West,4.6,-,N/A,,Clear,280,2013-07-23 02:53:00
8:53 PM,82.9,37.0,19,29.81,10.0,Calm,Calm,-,N/A,,Clear,0,2013-07-23 03:53:00
9:53 PM,81.0,39.0,22,29.83,10.0,South,5.8,-,N/A,,Clear,180,2013-07-23 04:53:00
10:53 PM,73.0,41.0,31,29.85,10.0,Calm,Calm,-,N/A,,Clear,0,2013-07-23 05:53:00
11:53 PM,66.9,39.0,36,29.87,10.0,East,4.6,-,N/A,,Clear,80,2013-07-23 06:53:00